Decorah, Iowa, United States (52101)
Lat: 43.30N, Lon: 91.79W
Wx Zone: IAZ010
Local Info
Past Weather Observations for Today

NOTE: This archive is for the closest National Weather Service station to Decorah. Information may differ from the station used for current weather conditions.

Click here for Long-term Archive

Time Weather Temperature Dewpoint Humidity Pressure Winds Precip Visibility
15:55
Mostly Cloudy
64°F / 18°C 46°F / 8°C 52% 30.12 in
(1020 mb)
NNW 13.8 mph
(NNW 22 kph)
- 10SM
15:35
Partly Cloudy
63°F / 17°C 46°F / 8°C 56% 30.12 in
(1020 mb)
NNW 15 mph
(NNW 24 kph)
- 10SM
15:15
Partly Cloudy
64°F / 18°C 46°F / 8°C 52% 30.09 in
(1019 mb)
NNW 13.8 mph
(NNW 22 kph)
- 10SM
14:55
Partly Cloudy
63°F / 17°C 46°F / 8°C 56% 30.09 in
(1019 mb)
NNW 12.7 mph
(NNW 20 kph)
- 10SM
14:35
Mostly Cloudy
64°F / 18°C 48°F / 9°C 56% 30.09 in
(1019 mb)
NW 11.5 mph
(NW 19 kph)
- 10SM
14:15
Mostly Cloudy
63°F / 17°C 48°F / 9°C 59% 30.09 in
(1019 mb)
NNW 11.5 mph
(NNW 19 kph)
- 10SM
13:55
Mostly Cloudy
63°F / 17°C 48°F / 9°C 59% 30.09 in
(1019 mb)
NNW 13.8 mph
(NNW 22 kph)
- 10SM
13:35
Mostly Cloudy
63°F / 17°C 48°F / 9°C 59% 30.09 in
(1019 mb)
NNW 13.8 mph
(NNW 22 kph)
- 10SM
13:15
Mostly Cloudy
63°F / 17°C 48°F / 9°C 59% 30.09 in
(1019 mb)
NNW 16.1 mph
(NNW 26 kph)
- 10SM
12:55
Mostly Cloudy
63°F / 17°C 48°F / 9°C 59% 30.06 in
(1018 mb)
NNW 18.4 mph
(NNW 30 kph)
- 10SM
12:35
Overcast
61°F / 16°C 48°F / 9°C 63% 30.06 in
(1018 mb)
NNW 10.4 mph
(NNW 17 kph)
- 10SM
12:15
Overcast
61°F / 16°C 48°F / 9°C 63% 30.06 in
(1018 mb)
NNW 16.1 mph
(NNW 26 kph)
- 10SM
11:55
Mostly Cloudy
63°F / 17°C 50°F / 10°C 64% 30.06 in
(1018 mb)
N 9.2 mph
(N 15 kph)
- 10SM
11:35
Overcast
61°F / 16°C 52°F / 11°C 72% 30.06 in
(1018 mb)
NNW 10.4 mph
(NNW 17 kph)
- 10SM
11:15
Overcast
59°F / 15°C 50°F / 10°C 72% 30.06 in
(1018 mb)
NNW 11.5 mph
(NNW 19 kph)
- 10SM
10:55
Overcast
59°F / 15°C 50°F / 10°C 72% 30.06 in
(1018 mb)
N 12.7 mph
(N 20 kph)
- 10SM
10:35
Overcast
57°F / 14°C 50°F / 10°C 77% 30.06 in
(1018 mb)
NNW 15 mph
(NNW 24 kph)
- 10SM
10:15
Overcast
57°F / 14°C 50°F / 10°C 77% 30.06 in
(1018 mb)
NNW 19.6 mph
(NNW 32 kph)
- 10SM
09:55
Overcast
57°F / 14°C 52°F / 11°C 82% 30.04 in
(1017 mb)
NNW 16.1 mph
(NNW 26 kph)
- 10SM
09:35
Overcast
55°F / 13°C 50°F / 10°C 82% 30.04 in
(1017 mb)
NNW 13.8 mph
(NNW 22 kph)
- 10SM
09:15
Overcast
54°F / 12°C 50°F / 10°C 88% 30.04 in
(1017 mb)
NNW 11.5 mph
(NNW 19 kph)
- 10SM
08:55
Overcast
54°F / 12°C 50°F / 10°C 88% 30.01 in
(1016 mb)
NNW 13.8 mph
(NNW 22 kph)
- 10SM
08:35
Overcast
54°F / 12°C 50°F / 10°C 88% 30.01 in
(1016 mb)
NNW 15 mph
(NNW 24 kph)
- 10SM
08:15
Overcast
54°F / 12°C 50°F / 10°C 88% 30.01 in
(1016 mb)
NW 18.4 mph
(NW 30 kph)
- 10SM
07:55
Overcast
54°F / 12°C 48°F / 9°C 82% 29.98 in
(1015 mb)
NNW 17.3 mph
(NNW 28 kph)
- 10SM
07:35
Overcast
54°F / 12°C 48°F / 9°C 82% 29.98 in
(1015 mb)
NW 13.8 mph
(NW 22 kph)
- 10SM
07:15
Overcast
54°F / 12°C 48°F / 9°C 82% 29.98 in
(1015 mb)
NNW 10.4 mph
(NNW 17 kph)
- 10SM
06:55
Overcast
54°F / 12°C 48°F / 9°C 82% 29.95 in
(1014 mb)
NNW 15 mph
(NNW 24 kph)
- 10SM
06:35
Overcast
54°F / 12°C 48°F / 9°C 82% 29.95 in
(1014 mb)
NNW 18.4 mph
(NNW 30 kph)
- 10SM
06:15
Mostly Cloudy
54°F / 12°C 48°F / 9°C 82% 29.92 in
(1013 mb)
NW 10.4 mph
(NW 17 kph)
- 10SM
05:55
Partly Cloudy
52°F / 11°C 50°F / 10°C 94% 29.92 in
(1013 mb)
NW 8.1 mph
(NW 13 kph)
- 10SM
05:35
Partly Cloudy
54°F / 12°C 48°F / 9°C 82% 29.92 in
(1013 mb)
NW 9.2 mph
(NW 15 kph)
- 10SM
05:15
Mostly Cloudy
54°F / 12°C 50°F / 10°C 88% 29.89 in
(1012 mb)
NW 9.2 mph
(NW 15 kph)
- 10SM
04:55
Overcast
54°F / 12°C 50°F / 10°C 88% 29.89 in
(1012 mb)
NW 10.4 mph
(NW 17 kph)
- 10SM
04:35
Mostly Cloudy
55°F / 13°C 50°F / 10°C 82% 29.89 in
(1012 mb)
NW 11.5 mph
(NW 19 kph)
- 10SM
04:15
Partly Cloudy
54°F / 12°C 50°F / 10°C 88% 29.89 in
(1012 mb)
NW 9.2 mph
(NW 15 kph)
- 10SM
03:55
Clear
54°F / 12°C 50°F / 10°C 88% 29.86 in
(1011 mb)
WNW 10.4 mph
(WNW 17 kph)
- 10SM
03:35
Clear
54°F / 12°C 52°F / 11°C 94% 29.86 in
(1011 mb)
NW 8.1 mph
(NW 13 kph)
- 10SM
03:15
Clear
54°F / 12°C 52°F / 11°C 94% 29.86 in
(1011 mb)
Variable 5.8 mph
(Variable 9 kph)
- 10SM
02:55
Clear
54°F / 12°C 52°F / 11°C 94% 29.86 in
(1011 mb)
Variable 5.8 mph
(Variable 9 kph)
- 10SM
02:35
Clear
54°F / 12°C 54°F / 12°C 100% 29.86 in
(1011 mb)
Variable 6.9 mph
(Variable 11 kph)
- 10SM
02:15
Fair
55°F / 13°C 54°F / 12°C 94% 29.83 in
(1010 mb)
Variable 5.8 mph
(Variable 9 kph)
-
01:55
Clear
54°F / 12°C 52°F / 11°C 94% 29.83 in
(1010 mb)
Variable 6.9 mph
(Variable 11 kph)
- 10SM
01:35
Clear
54°F / 12°C 52°F / 11°C 94% 29.83 in
(1010 mb)
Variable 3.5 mph
(Variable 6 kph)
- 10SM
01:15
Partly Cloudy
54°F / 12°C 52°F / 11°C 94% 29.86 in
(1011 mb)
WNW 6.9 mph
(WNW 11 kph)
- 10SM
00:55
Overcast
54°F / 12°C 52°F / 11°C 94% 29.86 in
(1011 mb)
W 6.9 mph
(W 11 kph)
- 10SM
00:35
Partly Cloudy
54°F / 12°C 52°F / 11°C 94% 29.86 in
(1011 mb)
SSW 8.1 mph
(SSW 13 kph)
- 10SM
00:15
Clear
54°F / 12°C 52°F / 11°C 94% 29.86 in
(1011 mb)
SSW 5.8 mph
(SSW 9 kph)
- 10SM
Time Weather Temperature Dewpoint Humidity Pressure Winds Precip Visibility


Weather for websites

WeatherForYou.com, LLC is not responsible for any damages or problems caused by this service. Current weather conditions are obtained from the closest station including government and personal stations which may have varying degrees of accuracy. Weather forecasts are derived from the NOAA NDFD. Like all things, this site belongs to Jesus Christ... He just trusts me to maintain it. If you have any questions or comments email webmaster@weatherforyou.com

Copyright © 2014, WeatherForYou.com LLC. All rights reserved.